This demonstration page uses our WeatherBlox Daily Observations layout. Learn more.

Left ArrowRight Arrow

34.16533, -84.80231

Hourly Observations for October 27, 2015

Temp ( °F °C ) Dew Point ( °F °C ) Humidity (%) Winds ( mph kmh ) Pressure ( in mb ) Visibility ( mi km ) Precip ( " mm )
12:53 am 00:53 Cloudy with Light Rain 53 11.7 50 10 89 89 E 15 24 30.16 1022 10 16 0.00 0.03
1:53 am 01:53 Cloudy 53 11.7 49 9.4 86 86 E 13 20 30.14 1021 10 16 0.00 0.03
2:53 am 02:53 Cloudy 52 11.1 49 9.4 89 89 E 9 15 30.13 1020 10 16 0.00 0.00
3:53 am 03:53 Cloudy 52 11.1 48 8.9 86 86 E 13 20 30.13 1020 10 16 0.00 0.00
4:53 am 04:53 Cloudy with Light Rain 51 10.6 48 8.9 89 89 E 10 17 30.11 1020 10 16 0.00 0.03
5:53 am 05:53 Cloudy with Light Rain 50 10 48 8.9 93 93 E 12 19 30.11 1020 10 16 0.05 1.27
6:53 am 06:53 Cloudy 50 10 48 8.9 93 93 ESE 9 15 30.11 1020 10 16 0.02 0.51
7:53 am 07:53 Cloudy with Light Rain 51 10.6 49 9.4 92 92 VRB 7 11 30.11 1020 10 16 0.01 0.25
8:53 am 08:53 Cloudy 52 11.1 49 9.4 89 89 E 8 13 30.11 1020 10 16 0.00 0.03
9:53 am 09:53 Cloudy with Light Rain 52 11.1 50 10 93 93 E 10 17 30.11 1020 10 16 0.00 0.03
10:53 am 10:53 Cloudy 53 11.7 50 10 89 89 E 10 17 30.09 1019 10 16 0.01 0.25
11:53 am 11:53 Cloudy 54 12.2 51 10.6 90 90 E 12 19 30.08 1019 10 16 0.00 0.00
12:53 pm 12:53 Cloudy with Mist and Fog 54 12.2 52 11.1 93 93 E 8 13 30.06 1018 4 6 0.00 0.00
1:53 pm 13:53 Cloudy 56 13.3 52 11.1 87 87 E 8 13 30.02 1017 10 16 0.00 0.00
2:53 pm 14:53 Cloudy 56 13.3 52 11.1 87 87 ESE 8 13 30.00 1016 10 16 0.00 0.00
3:53 pm 15:53 Cloudy 56 13.3 52 11.1 87 87 E 13 20 29.96 1015 10 16 0.00 0.00
4:53 pm 16:53 Cloudy 56 13.3 52 11.1 87 87 E 15 24 29.96 1014 10 16 0.00 0.00
5:53 pm 17:53 Cloudy with Light Rain 55 12.8 53 11.7 93 93 E 9 15 29.95 1014 10 16 0.00 0.03
6:53 pm 18:53 Cloudy with Mist and Fog 55 12.8 53 11.7 93 93 ESE 9 15 29.95 1014 6 10 0.00 0.03
7:53 pm 19:53 Cloudy 55 12.8 53 11.7 93 93 E 9 15 29.94 1014 10 16 0.01 0.25
8:53 pm 20:53 Cloudy 55 12.8 53 11.7 93 93 E 12 19 29.93 1014 10 16 0.00 0.00
9:53 pm 21:53 Cloudy 55 12.8 54 12.2 96 96 ESE 9 15 29.93 1014 7 11 0.01 0.25
10:53 pm 22:53 Cloudy 55 12.8 54 12.2 96 96 E 8 13 29.91 1013 10 16 0.00 0.00
11:53 pm 23:53 Cloudy 55 12.8 54 12.2 96 96 ESE 10 17 29.91 1013 9 14 0.01 0.25

Powered by AerisWeather